SBI5054 UWGG-UNNT

Flight info

Callsign SBI5054
Flight time N/A
Altitude 36000
Route N0430F360 PESAB T765 GEMKI L94 KEROM L749 LUKAS M864 GISMA B926 SZ W1 GOLIM
Aircraft E170/M-VGDW/C

Departure

Time 2026-04-14 11:02
Airport Nizhny Novgorod / Strigino International Airport (UWGG)

Arrival

Time N/A
Airport Novosibirsk Tolmachevo Airport (UNNT)
Time Latitude Longitude Altitude Speed Heading
2026-04-14 10:29 56.22023 43.78849 264 ft 0 kts 101°
2026-04-14 10:53 56.22025 43.78837 264 ft 4 kts 101°
2026-04-14 10:53 56.22032 43.78791 264 ft 4 kts 111°
2026-04-14 10:53 56.22043 43.78752 264 ft 1 kts 123°
2026-04-14 10:53 56.22046 43.78744 264 ft 0 kts 123°
2026-04-14 10:56 56.22045 43.78747 264 ft 1 kts 127°
2026-04-14 10:56 56.22041 43.78754 264 ft 0 kts 150°
2026-04-14 10:57 56.22037 43.78755 264 ft 0 kts 183°
2026-04-14 10:57 56.22014 43.78741 264 ft 7 kts 199°
2026-04-14 10:57 56.21953 43.78706 264 ft 10 kts 210°
2026-04-14 10:57 56.21914 43.78592 264 ft 12 kts 269°
2026-04-14 10:58 56.21930 43.78438 264 ft 12 kts 278°
2026-04-14 10:58 56.21932 43.78420 264 ft 0 kts 283°
2026-04-14 10:59 56.21932 43.78419 264 ft 1 kts 282°
2026-04-14 11:00 56.21935 43.78399 264 ft 3 kts 280°
2026-04-14 11:00 56.21941 43.78335 264 ft 7 kts 280°
2026-04-14 11:00 56.21958 43.78244 264 ft 9 kts 312°
2026-04-14 11:00 56.22016 43.78225 265 ft 9 kts 11°
2026-04-14 11:01 56.22020 43.78227 265 ft 1 kts 11°
2026-04-14 11:01 56.22256 43.78310 265 ft 69 kts 12°
2026-04-14 11:01 56.22945 43.78567 266 ft 131 kts 11°
2026-04-14 11:01 56.23982 43.78936 457 ft 164 kts 14°
2026-04-14 11:02 56.25102 43.79488 1176 ft 167 kts 19°
2026-04-14 11:02 56.26195 43.80178 1860 ft 169 kts 24°
2026-04-14 11:02 56.27311 43.80912 2421 ft 172 kts 13°
2026-04-14 11:02 56.28528 43.81144 2922 ft 181 kts 12°
2026-04-14 11:03 56.29770 43.81452 3447 ft 187 kts 16°
2026-04-14 11:03 56.31082 43.81850 3915 ft 194 kts 17°
2026-04-14 11:03 56.32455 43.82284 4423 ft 207 kts 17°
2026-04-14 11:03 56.33960 43.82806 4733 ft 231 kts 18°
2026-04-14 11:04 56.35587 43.83383 5252 ft 245 kts 18°
2026-04-14 11:04 56.37310 43.84004 5741 ft 258 kts 19°
2026-04-14 11:04 56.38921 43.85337 6281 ft 255 kts 47°
2026-04-14 11:04 56.39958 43.87862 6932 ft 251 kts 71°
2026-04-14 11:05 56.40278 43.90922 7621 ft 249 kts 93°
2026-04-14 11:05 56.40130 43.94045 8320 ft 251 kts 97°
2026-04-14 11:05 56.39938 43.97204 8962 ft 255 kts 97°
2026-04-14 11:05 56.39749 44.00402 9622 ft 257 kts 97°
2026-04-14 11:06 56.39532 44.03639 10188 ft 263 kts 98°
2026-04-14 11:06 56.39284 44.07008 10399 ft 281 kts 99°
2026-04-14 11:06 56.38987 44.10586 10696 ft 293 kts 99°
2026-04-14 11:06 56.38684 44.14255 11175 ft 298 kts 100°
2026-04-14 11:07 56.38353 44.17976 11702 ft 302 kts 101°
2026-04-14 11:07 56.37829 44.21643 12190 ft 304 kts 116°
2026-04-14 11:07 56.36616 44.24762 12742 ft 304 kts 129°
2026-04-14 11:07 56.35300 44.27694 13318 ft 306 kts 129°
2026-04-14 11:08 56.33958 44.30678 13904 ft 307 kts 129°
2026-04-14 11:08 56.32603 44.33682 14490 ft 310 kts 129°
2026-04-14 11:08 56.31237 44.36702 15091 ft 312 kts 129°
2026-04-14 11:08 56.29858 44.39742 15703 ft 314 kts 129°
2026-04-14 11:09 56.28467 44.42798 16285 ft 317 kts 129°
2026-04-14 11:09 56.27060 44.45876 16847 ft 320 kts 129°
2026-04-14 11:09 56.25639 44.48980 17405 ft 323 kts 129°
2026-04-14 11:10 56.22743 44.55281 18486 ft 330 kts 129°
2026-04-14 11:10 56.21269 44.58467 19041 ft 333 kts 129°
2026-04-14 11:10 56.19781 44.61685 19582 ft 337 kts 130°
2026-04-14 11:10 56.18271 44.64940 20148 ft 340 kts 130°
2026-04-14 11:11 56.16749 44.68214 20694 ft 343 kts 130°
2026-04-14 11:11 56.15206 44.71518 21207 ft 347 kts 130°
2026-04-14 11:11 56.13646 44.74854 21699 ft 351 kts 130°
2026-04-14 11:11 56.12070 44.78216 22168 ft 354 kts 130°
2026-04-14 11:12 56.10478 44.81603 22628 ft 357 kts 131°
2026-04-14 11:12 56.08868 44.85018 23100 ft 360 kts 131°
2026-04-14 11:12 56.07244 44.88458 23554 ft 364 kts 131°
2026-04-14 11:12 56.05602 44.91926 24019 ft 367 kts 131°
2026-04-14 11:13 56.03946 44.95422 24502 ft 370 kts 131°
2026-04-14 11:13 56.02291 44.98971 24984 ft 373 kts 128°
2026-04-14 11:13 56.01114 45.03122 25430 ft 380 kts 108°
2026-04-14 11:13 56.00767 45.07825 25885 ft 387 kts 91°
2026-04-14 11:14 56.00923 45.12641 26312 ft 390 kts 88°
2026-04-14 11:14 56.01121 45.17495 26700 ft 393 kts 88°
2026-04-14 11:14 56.01320 45.22385 27054 ft 396 kts 88°
2026-04-14 11:14 56.01520 45.27245 27390 ft 399 kts 88°
2026-04-14 11:15 56.01720 45.32203 27735 ft 401 kts 88°
2026-04-14 11:15 56.01925 45.37192 28069 ft 404 kts 88°
2026-04-14 11:15 56.02127 45.42208 28412 ft 406 kts 88°
2026-04-14 11:15 56.02331 45.47252 28748 ft 408 kts 88°
2026-04-14 11:16 56.02536 45.52327 29097 ft 410 kts 88°
2026-04-14 11:16 56.02739 45.57426 29430 ft 412 kts 88°
2026-04-14 11:16 56.02944 45.62544 29751 ft 414 kts 88°
2026-04-14 11:16 56.03148 45.67690 30057 ft 415 kts 88°
2026-04-14 11:17 56.03358 45.72854 30322 ft 418 kts 88°
2026-04-14 11:17 56.03563 45.78054 30598 ft 420 kts 88°
2026-04-14 11:17 56.03769 45.83269 30843 ft 422 kts 88°
2026-04-14 11:17 56.03978 45.88512 31082 ft 423 kts 88°
2026-04-14 11:18 56.04182 45.93777 31287 ft 425 kts 88°
2026-04-14 11:18 56.04388 45.99070 31503 ft 427 kts 88°
2026-04-14 11:18 56.04600 46.04381 31710 ft 429 kts 88°
2026-04-14 11:18 56.04811 46.09712 31918 ft 430 kts 88°
2026-04-14 11:19 56.04952 46.13250 32046 ft 432 kts 88°
2026-04-14 11:19 56.05235 46.20367 32303 ft 434 kts 88°
2026-04-14 11:19 56.05445 46.25752 32554 ft 434 kts 89°
2026-04-14 11:19 56.05652 46.31138 32816 ft 434 kts 89°
2026-04-14 11:20 56.05858 46.36528 33064 ft 434 kts 89°
2026-04-14 11:20 56.06063 46.41915 33310 ft 434 kts 88°
2026-04-14 11:20 56.06265 46.47301 33552 ft 434 kts 88°
2026-04-14 11:20 56.06468 46.52694 33783 ft 434 kts 89°
2026-04-14 11:21 56.06516 46.58087 33995 ft 434 kts 92°
2026-04-14 11:21 56.06534 46.61738 34147 ft 434 kts 92°
2026-04-14 11:21 56.06564 46.67141 34371 ft 435 kts 92°
2026-04-14 11:21 56.06601 46.72493 34604 ft 434 kts 92°
2026-04-14 11:22 56.06634 46.77896 34811 ft 435 kts 92°
2026-04-14 11:22 56.06667 46.83310 35014 ft 435 kts 91°
2026-04-14 11:22 56.06708 46.88726 35221 ft 436 kts 91°
2026-04-14 11:22 56.06746 46.94147 35439 ft 435 kts 91°
2026-04-14 11:23 56.06783 46.99566 35654 ft 435 kts 91°
2026-04-14 11:23 56.06820 47.04984 35857 ft 435 kts 91°
2026-04-14 11:23 56.06854 47.10413 36049 ft 435 kts 91°
2026-04-14 11:23 56.06889 47.15836 36206 ft 437 kts 91°
2026-04-14 11:24 56.06952 47.26823 36216 ft 446 kts 91°
2026-04-14 11:24 56.07008 47.38005 36245 ft 451 kts 91°
2026-04-14 11:25 56.07056 47.49215 36221 ft 454 kts 91°
2026-04-14 11:25 56.07106 47.60524 36155 ft 454 kts 91°
2026-04-14 11:26 56.07155 47.71802 36154 ft 453 kts 91°
2026-04-14 11:26 56.07189 47.83079 36154 ft 454 kts 92°
2026-04-14 11:27 56.07197 47.94373 36155 ft 453 kts 92°
2026-04-14 11:27 56.07153 48.05659 36144 ft 453 kts 92°
2026-04-14 11:28 56.07116 48.16951 36146 ft 453 kts 92°
2026-04-14 11:28 56.07078 48.28166 36147 ft 454 kts 92°
2026-04-14 11:29 56.07033 48.39475 36136 ft 455 kts 92°
2026-04-14 11:29 56.06986 48.50805 36137 ft 456 kts 92°
2026-04-14 11:30 56.06931 48.62162 36135 ft 456 kts 92°
2026-04-14 11:30 56.06870 48.73532 36137 ft 457 kts 92°
2026-04-14 11:31 56.06810 48.84920 36140 ft 458 kts 92°
2026-04-14 11:31 56.06729 48.96340 36121 ft 460 kts 92°
2026-04-14 11:32 56.06651 49.07776 36126 ft 460 kts 92°
2026-04-14 11:32 56.06554 49.19159 36132 ft 461 kts 92°
2026-04-14 11:33 56.06451 49.30630 36132 ft 461 kts 92°
2026-04-14 11:34 56.06284 49.47847 36127 ft 461 kts 92°
2026-04-14 11:34 56.06153 49.59301 36133 ft 461 kts 93°
2026-04-14 11:35 56.06008 49.70761 36139 ft 459 kts 93°
2026-04-14 11:35 56.05858 49.82194 36142 ft 459 kts 93°
2026-04-14 11:36 56.05605 49.93526 36139 ft 459 kts 94°
2026-04-14 11:36 56.05370 50.04930 36142 ft 459 kts 94°
2026-04-14 11:37 56.05151 50.16345 36140 ft 459 kts 94°
2026-04-14 11:37 56.04932 50.27764 36138 ft 459 kts 94°
2026-04-14 11:38 56.04710 50.39202 36152 ft 461 kts 94°
2026-04-14 11:38 56.04477 50.50671 36148 ft 462 kts 94°
2026-04-14 11:39 56.04235 50.62174 36146 ft 463 kts 94°
2026-04-14 11:39 56.03986 50.73698 36152 ft 465 kts 94°
2026-04-14 11:40 56.03726 50.85172 36145 ft 465 kts 93°
2026-04-14 11:40 56.03762 50.96765 36147 ft 467 kts 90°
2026-04-14 11:41 56.03839 51.08386 36158 ft 467 kts 90°
2026-04-14 11:41 56.03884 51.20015 36157 ft 468 kts 90°
2026-04-14 11:42 56.03911 51.31666 36157 ft 468 kts 90°
2026-04-14 11:42 56.03928 51.43304 36156 ft 468 kts 91°
2026-04-14 11:43 56.03930 51.54921 36157 ft 467 kts 91°
2026-04-14 11:43 56.03922 51.66527 36158 ft 467 kts 91°
2026-04-14 11:44 56.03905 51.78139 36156 ft 467 kts 91°
2026-04-14 11:44 56.04057 51.89666 36166 ft 467 kts 86°
2026-04-14 11:45 56.04526 52.01332 36156 ft 467 kts 87°
2026-04-14 11:45 56.04948 52.12852 36157 ft 467 kts 87°
2026-04-14 11:46 56.05349 52.24460 36154 ft 467 kts 87°
2026-04-14 11:46 56.05734 52.36063 36156 ft 468 kts 87°
2026-04-14 11:47 56.06107 52.47686 36162 ft 469 kts 87°
2026-04-14 11:47 56.06469 52.59342 36159 ft 470 kts 87°
2026-04-14 11:48 56.06801 52.71040 36147 ft 471 kts 88°
2026-04-14 11:48 56.07092 52.82755 36158 ft 472 kts 88°
2026-04-14 11:49 56.07381 52.94512 36160 ft 473 kts 88°
2026-04-14 11:49 56.07662 53.06277 36158 ft 473 kts 88°
2026-04-14 11:50 56.07933 53.18070 36157 ft 474 kts 88°
2026-04-14 11:50 56.08191 53.29793 36156 ft 474 kts 88°
2026-04-14 11:51 56.08560 53.47505 36159 ft 474 kts 88°
2026-04-14 11:51 56.08794 53.59337 36158 ft 475 kts 88°
2026-04-14 11:52 56.09015 53.71148 36167 ft 474 kts 88°
2026-04-14 11:52 56.09225 53.82963 36165 ft 474 kts 88°
2026-04-14 11:53 56.09423 53.94770 36170 ft 474 kts 88°
2026-04-14 11:53 56.09613 54.06488 36168 ft 474 kts 88°
2026-04-14 11:54 56.09792 54.18302 36166 ft 474 kts 89°
2026-04-14 11:54 56.09959 54.30119 36163 ft 475 kts 89°
2026-04-14 11:55 56.10590 54.41886 36191 ft 475 kts 80°
2026-04-14 11:55 56.11650 54.53591 36165 ft 476 kts 80°
2026-04-14 11:56 56.12683 54.65315 36164 ft 477 kts 80°
2026-04-14 11:56 56.13701 54.77089 36167 ft 478 kts 80°
2026-04-14 11:57 56.14705 54.88884 36167 ft 479 kts 80°
2026-04-14 11:57 56.15694 55.00625 36169 ft 480 kts 80°
2026-04-14 11:58 56.16681 55.12486 36167 ft 481 kts 80°
2026-04-14 11:58 56.17661 55.24344 36177 ft 481 kts 80°
2026-04-14 11:59 56.18629 55.36235 36177 ft 482 kts 80°
2026-04-14 11:59 56.19588 55.48164 36175 ft 482 kts 81°
2026-04-14 12:00 56.20541 55.60078 36173 ft 482 kts 80°
2026-04-14 12:00 56.21460 55.72009 36174 ft 482 kts 81°
2026-04-14 12:01 56.22360 55.83942 36177 ft 482 kts 81°
2026-04-14 12:01 56.23259 55.95890 36178 ft 483 kts 81°
2026-04-14 12:02 56.24142 56.07766 36175 ft 482 kts 81°
2026-04-14 12:02 56.25027 56.19751 36175 ft 483 kts 81°
2026-04-14 12:03 56.25897 56.31740 36177 ft 484 kts 81°
2026-04-14 12:03 56.26756 56.43743 36174 ft 484 kts 81°
2026-04-14 12:04 56.27611 56.55777 36178 ft 485 kts 81°
2026-04-14 12:04 56.28455 56.67829 36177 ft 485 kts 81°
2026-04-14 12:05 56.29288 56.79897 36174 ft 486 kts 81°
2026-04-14 12:05 56.30114 56.91987 36176 ft 487 kts 81°
2026-04-14 12:06 56.30929 57.04093 36177 ft 487 kts 81°
2026-04-14 12:06 56.31734 57.16223 36175 ft 488 kts 81°
2026-04-14 12:07 56.32528 57.28367 36179 ft 488 kts 81°
2026-04-14 12:07 56.33317 57.40529 36177 ft 489 kts 81°
2026-04-14 12:08 56.34083 57.52711 36189 ft 489 kts 81°
2026-04-14 12:08 56.34839 57.64907 36182 ft 489 kts 81°
2026-04-14 12:09 56.35588 57.77114 36177 ft 490 kts 81°
2026-04-14 12:09 56.36204 57.87290 36185 ft 491 kts 81°
2026-04-14 12:10 56.37051 58.01512 36187 ft 490 kts 81°
2026-04-14 12:10 56.37765 58.13753 36182 ft 491 kts 81°
2026-04-14 12:11 56.38352 58.23959 36183 ft 491 kts 81°
2026-04-14 12:11 56.39047 58.36210 36184 ft 489 kts 82°
2026-04-14 12:12 56.39720 58.48429 36187 ft 489 kts 82°
2026-04-14 12:12 56.40384 58.60663 36188 ft 490 kts 82°
2026-04-14 12:13 56.41037 58.72910 36184 ft 491 kts 82°
2026-04-14 12:13 56.41677 58.85180 36186 ft 491 kts 82°
2026-04-14 12:14 56.42310 58.97480 36183 ft 491 kts 82°
2026-04-14 12:14 56.42932 59.09775 36187 ft 492 kts 83°
2026-04-14 12:15 56.42849 59.22191 36200 ft 496 kts 90°
2026-04-14 12:15 56.42573 59.34644 36188 ft 495 kts 90°
2026-04-14 12:16 56.42302 59.47103 36178 ft 496 kts 90°
2026-04-14 12:16 56.42024 59.59567 36186 ft 498 kts 90°
2026-04-14 12:17 56.41732 59.72055 36183 ft 497 kts 90°
2026-04-14 12:17 56.41432 59.84526 36183 ft 498 kts 90°
2026-04-14 12:18 56.41115 59.97022 36185 ft 498 kts 90°
2026-04-14 12:18 56.40791 60.09513 36186 ft 498 kts 90°
2026-04-14 12:19 56.40456 60.21916 36180 ft 498 kts 90°
2026-04-14 12:19 56.40122 60.34426 36186 ft 499 kts 90°
2026-04-14 12:20 56.39783 60.46815 36185 ft 499 kts 90°
2026-04-14 12:20 56.39390 60.59331 36179 ft 499 kts 91°
2026-04-14 12:21 56.38981 60.71882 36185 ft 502 kts 91°
2026-04-14 12:21 56.38558 60.84480 36184 ft 502 kts 91°
2026-04-14 12:22 56.38124 60.97081 36182 ft 503 kts 91°
2026-04-14 12:22 56.37695 61.09688 36190 ft 504 kts 90°
2026-04-14 12:23 56.37278 61.22323 36178 ft 504 kts 90°
2026-04-14 12:23 56.36848 61.34978 36173 ft 506 kts 91°
2026-04-14 12:24 56.36401 61.47644 36177 ft 507 kts 91°
2026-04-14 12:24 56.35944 61.60341 36176 ft 508 kts 91°
2026-04-14 12:25 56.35473 61.73000 36176 ft 509 kts 91°
2026-04-14 12:25 56.34988 61.85746 36175 ft 510 kts 91°
2026-04-14 12:26 56.34491 61.98518 36176 ft 510 kts 91°
2026-04-14 12:26 56.33984 62.11288 36166 ft 510 kts 91°
2026-04-14 12:27 56.33473 62.24055 36167 ft 511 kts 91°
2026-04-14 12:27 56.32932 62.36821 36167 ft 511 kts 91°
2026-04-14 12:28 56.32395 62.49464 36167 ft 509 kts 91°
2026-04-14 12:28 56.31851 62.62188 36171 ft 509 kts 91°
2026-04-14 12:29 56.31273 62.74894 36165 ft 509 kts 91°
2026-04-14 12:29 56.30699 62.87582 36156 ft 508 kts 91°
2026-04-14 12:30 56.30114 63.00247 36157 ft 507 kts 92°
2026-04-14 12:30 56.29526 63.12908 36160 ft 508 kts 92°
2026-04-14 12:31 56.28903 63.25577 36159 ft 508 kts 92°
2026-04-14 12:31 56.28279 63.38258 36155 ft 509 kts 92°
2026-04-14 12:32 56.27639 63.50960 36157 ft 510 kts 92°
2026-04-14 12:32 56.26867 63.63666 36156 ft 510 kts 93°
2026-04-14 12:33 56.26095 63.76387 36155 ft 511 kts 93°
2026-04-14 12:33 56.25359 63.89105 36144 ft 511 kts 93°
2026-04-14 12:34 56.24627 64.01761 36146 ft 512 kts 92°
2026-04-14 12:34 56.23886 64.14496 36148 ft 512 kts 93°
2026-04-14 12:35 56.23131 64.27235 36146 ft 512 kts 93°
2026-04-14 12:35 56.22368 64.39932 36150 ft 511 kts 93°
2026-04-14 12:36 56.21596 64.52627 36147 ft 510 kts 93°
2026-04-14 12:36 56.20812 64.65295 36141 ft 509 kts 93°
2026-04-14 12:37 56.20020 64.77948 36146 ft 510 kts 93°
2026-04-14 12:37 56.19222 64.90591 36139 ft 510 kts 93°
2026-04-14 12:38 56.18001 65.09465 36142 ft 509 kts 94°
2026-04-14 12:39 56.17168 65.22090 36129 ft 509 kts 93°
2026-04-14 12:39 56.16320 65.34698 36140 ft 509 kts 94°
2026-04-14 12:40 56.15423 65.47318 36136 ft 511 kts 94°
2026-04-14 12:40 56.14501 65.59950 36137 ft 511 kts 94°
2026-04-14 12:41 56.13588 65.72594 36139 ft 511 kts 94°
2026-04-14 12:41 56.12673 65.85242 36142 ft 512 kts 94°
2026-04-14 12:42 56.11750 65.97894 36156 ft 513 kts 94°
2026-04-14 12:42 56.10810 66.10567 36157 ft 513 kts 94°
2026-04-14 12:43 56.09865 66.23160 36147 ft 512 kts 94°
2026-04-14 12:43 56.08911 66.35785 36149 ft 511 kts 95°
2026-04-14 12:44 56.07932 66.48390 36147 ft 510 kts 95°
2026-04-14 12:44 56.06953 66.60964 36148 ft 509 kts 95°
2026-04-14 12:45 56.05488 66.79770 36148 ft 507 kts 95°
2026-04-14 12:45 56.04511 66.92174 36150 ft 506 kts 95°
2026-04-14 12:46 56.03498 67.04639 36149 ft 506 kts 95°
2026-04-14 12:46 56.02480 67.17069 36148 ft 504 kts 95°
2026-04-14 12:47 56.01533 67.29481 36157 ft 501 kts 88°
2026-04-14 12:47 56.01708 67.35635 36163 ft 494 kts 77°
2026-04-14 12:47 56.02154 67.41730 36180 ft 495 kts 78°
2026-04-14 12:48 56.02977 67.53946 36148 ft 494 kts 78°
2026-04-14 12:48 56.03793 67.66122 36143 ft 493 kts 78°
2026-04-14 12:49 56.04586 67.78236 36141 ft 493 kts 78°
2026-04-14 12:49 56.05372 67.90444 36146 ft 494 kts 78°
2026-04-14 12:50 56.06524 68.08764 36148 ft 494 kts 78°
2026-04-14 12:51 56.07278 68.20982 36140 ft 494 kts 78°
2026-04-14 12:51 56.08021 68.33205 36135 ft 494 kts 78°
2026-04-14 12:52 56.08755 68.45407 36138 ft 492 kts 78°
2026-04-14 12:52 56.09481 68.57602 36141 ft 492 kts 79°
2026-04-14 12:53 56.10191 68.69774 36142 ft 491 kts 79°
2026-04-14 12:53 56.10886 68.81935 36129 ft 490 kts 79°
2026-04-14 12:54 56.11582 68.94011 36136 ft 490 kts 79°
2026-04-14 12:54 56.12267 69.06219 36143 ft 489 kts 79°
2026-04-14 12:55 56.12937 69.18330 36141 ft 488 kts 79°
2026-04-14 12:55 56.13598 69.30362 36134 ft 487 kts 80°
2026-04-14 12:56 56.14231 69.42528 36142 ft 487 kts 80°
2026-04-14 12:56 56.14365 69.54657 36142 ft 491 kts 85°
2026-04-14 12:57 56.14322 69.66885 36156 ft 491 kts 90°
2026-04-14 12:57 56.13652 69.79139 36129 ft 494 kts 92°
2026-04-14 12:58 56.12946 69.91373 36137 ft 493 kts 92°
2026-04-14 12:58 56.12364 70.01552 36140 ft 494 kts 92°
2026-04-14 12:59 56.11661 70.13788 36136 ft 494 kts 92°
2026-04-14 12:59 56.10952 70.26028 36140 ft 494 kts 92°
2026-04-14 13:00 56.10229 70.38263 36150 ft 493 kts 92°
2026-04-14 13:00 56.09494 70.50470 36148 ft 492 kts 92°
2026-04-14 13:01 56.08754 70.62655 36147 ft 492 kts 92°
2026-04-14 13:01 56.08003 70.74832 36150 ft 492 kts 92°
2026-04-14 13:02 56.07242 70.86995 36148 ft 491 kts 92°
2026-04-14 13:02 56.06481 70.99040 36150 ft 490 kts 92°
2026-04-14 13:03 56.05700 71.11172 36150 ft 490 kts 92°
2026-04-14 13:03 56.04907 71.23298 36148 ft 490 kts 92°
2026-04-14 13:04 56.04104 71.35388 36149 ft 489 kts 92°
2026-04-14 13:04 56.03291 71.47462 36147 ft 488 kts 92°
2026-04-14 13:05 56.02483 71.59443 36150 ft 489 kts 92°
2026-04-14 13:05 56.01652 71.71520 36152 ft 488 kts 92°
2026-04-14 13:06 56.00809 71.83571 36148 ft 489 kts 92°
2026-04-14 13:06 55.99954 71.95634 36149 ft 489 kts 92°
2026-04-14 13:07 55.99088 72.07691 36148 ft 489 kts 92°
2026-04-14 13:07 55.98203 72.19759 36161 ft 489 kts 93°
2026-04-14 13:08 55.97315 72.31735 36156 ft 490 kts 93°
2026-04-14 13:08 55.96413 72.43801 36161 ft 490 kts 93°
2026-04-14 13:09 55.95500 72.55876 36158 ft 490 kts 93°
2026-04-14 13:09 55.94504 72.67943 36159 ft 492 kts 95°
2026-04-14 13:10 55.93439 72.80007 36157 ft 493 kts 94°
2026-04-14 13:10 55.92421 72.92107 36156 ft 494 kts 94°
2026-04-14 13:11 55.91415 73.04230 36156 ft 494 kts 94°
2026-04-14 13:11 55.90410 73.16366 36126 ft 494 kts 93°
2026-04-14 13:12 55.89399 73.28412 36135 ft 495 kts 94°
2026-04-14 13:12 55.88351 73.40533 36145 ft 495 kts 94°
2026-04-14 13:13 55.87294 73.52638 36143 ft 495 kts 94°
2026-04-14 13:13 55.86224 73.64751 36132 ft 495 kts 94°
2026-04-14 13:14 55.85144 73.76843 36129 ft 493 kts 94°
2026-04-14 13:14 55.84052 73.88913 36130 ft 494 kts 94°
2026-04-14 13:15 55.82951 74.00988 36131 ft 494 kts 94°
2026-04-14 13:15 55.81839 74.13043 36124 ft 494 kts 94°
2026-04-14 13:16 55.80720 74.25031 36128 ft 494 kts 94°
2026-04-14 13:16 55.79585 74.37104 36132 ft 495 kts 95°
2026-04-14 13:17 55.78444 74.49159 36133 ft 495 kts 95°
2026-04-14 13:17 55.77293 74.61248 36138 ft 497 kts 95°
2026-04-14 13:18 55.76125 74.73350 36136 ft 497 kts 95°
2026-04-14 13:18 55.74916 74.85448 36141 ft 498 kts 96°
2026-04-14 13:19 55.73691 74.97567 36139 ft 498 kts 96°
2026-04-14 13:19 55.72468 75.09668 36142 ft 499 kts 96°
2026-04-14 13:20 55.71238 75.21767 36135 ft 498 kts 96°
2026-04-14 13:20 55.70002 75.33799 36132 ft 499 kts 96°
2026-04-14 13:21 55.68748 75.45914 36131 ft 500 kts 96°
2026-04-14 13:21 55.67484 75.58027 36131 ft 499 kts 96°
2026-04-14 13:22 55.66208 75.70124 36138 ft 499 kts 97°
2026-04-14 13:22 55.64923 75.82187 36143 ft 499 kts 97°
2026-04-14 13:23 55.63623 75.94266 36136 ft 499 kts 97°
2026-04-14 13:23 55.62314 76.06332 36141 ft 500 kts 97°
2026-04-14 13:24 55.60993 76.18412 36142 ft 500 kts 97°
2026-04-14 13:24 55.58989 76.36503 36132 ft 500 kts 97°
2026-04-14 13:25 55.57638 76.48556 36146 ft 500 kts 97°
2026-04-14 13:26 55.54909 76.72650 36156 ft 500 kts 98°
2026-04-14 13:26 55.53541 76.84602 36159 ft 500 kts 98°
2026-04-14 13:27 55.52148 76.96648 36158 ft 501 kts 98°
2026-04-14 13:27 55.50744 77.08683 36157 ft 500 kts 98°
2026-04-14 13:28 55.49337 77.20674 36224 ft 500 kts 98°
2026-04-14 13:28 55.47922 77.32696 36214 ft 500 kts 98°
2026-04-14 13:29 55.46487 77.44689 36212 ft 500 kts 98°
2026-04-14 13:29 55.45046 77.56666 36212 ft 500 kts 99°
2026-04-14 13:30 55.43610 77.68648 36214 ft 500 kts 98°
2026-04-14 13:30 55.42188 77.80613 36213 ft 499 kts 99°
2026-04-14 13:31 55.40747 77.92561 36211 ft 499 kts 99°
2026-04-14 13:31 55.39295 78.04441 36214 ft 499 kts 99°
2026-04-14 13:32 55.37810 78.16355 36217 ft 499 kts 99°
2026-04-14 13:32 55.36321 78.28257 36208 ft 499 kts 99°
2026-04-14 13:33 55.35085 78.40229 36214 ft 498 kts 96°
2026-04-14 13:33 55.34046 78.52246 36212 ft 497 kts 95°
2026-04-14 13:34 55.32515 78.70260 36220 ft 498 kts 95°
2026-04-14 13:35 55.31498 78.82291 36223 ft 497 kts 95°
2026-04-14 13:35 55.30490 78.94196 36222 ft 496 kts 95°
2026-04-14 13:36 55.29478 79.06176 36221 ft 496 kts 95°
2026-04-14 13:36 55.28453 79.18140 36220 ft 496 kts 95°
2026-04-14 13:37 55.27430 79.30120 36223 ft 495 kts 95°
2026-04-14 13:37 55.26397 79.42066 36220 ft 496 kts 96°
2026-04-14 13:38 55.25356 79.54024 36222 ft 496 kts 96°
2026-04-14 13:38 55.24286 79.65962 36222 ft 496 kts 96°
2026-04-14 13:39 55.23218 79.77892 36219 ft 496 kts 96°
2026-04-14 13:39 55.22132 79.89745 36221 ft 495 kts 96°
2026-04-14 13:40 55.21024 80.01598 35715 ft 486 kts 96°
2026-04-14 13:40 55.20479 80.07357 35305 ft 475 kts 96°
2026-04-14 13:40 55.19943 80.13053 34604 ft 472 kts 96°
2026-04-14 13:40 55.19414 80.18691 33959 ft 468 kts 96°
2026-04-14 13:41 55.18885 80.24298 33338 ft 464 kts 97°
2026-04-14 13:41 55.18359 80.29846 32690 ft 460 kts 96°
2026-04-14 13:41 55.17837 80.35339 32118 ft 455 kts 97°
2026-04-14 13:41 55.17313 80.40775 31506 ft 451 kts 97°
2026-04-14 13:42 55.16797 80.46161 30915 ft 447 kts 97°
2026-04-14 13:42 55.16290 80.51530 30328 ft 446 kts 97°
2026-04-14 13:42 55.15783 80.56901 29721 ft 449 kts 97°
2026-04-14 13:42 55.15269 80.62309 29138 ft 453 kts 97°
2026-04-14 13:43 55.14744 80.67767 28509 ft 455 kts 97°
2026-04-14 13:43 55.14224 80.73208 27919 ft 452 kts 98°
2026-04-14 13:43 55.13692 80.78601 27310 ft 448 kts 98°
2026-04-14 13:43 55.13170 80.83949 26716 ft 444 kts 98°
2026-04-14 13:44 55.12655 80.89158 26139 ft 439 kts 98°
2026-04-14 13:44 55.12135 80.94398 25556 ft 434 kts 98°
2026-04-14 13:44 55.11835 80.99614 24993 ft 428 kts 90°
2026-04-14 13:44 55.11764 81.04784 24417 ft 423 kts 87°
2026-04-14 13:45 55.11759 81.09898 23855 ft 419 kts 87°
2026-04-14 13:45 55.11764 81.14953 23304 ft 414 kts 87°
2026-04-14 13:45 55.11773 81.19963 22763 ft 410 kts 87°
2026-04-14 13:45 55.11786 81.24926 22215 ft 407 kts 87°
2026-04-14 13:46 55.11797 81.29817 21682 ft 403 kts 87°
2026-04-14 13:46 55.11807 81.34691 21147 ft 399 kts 87°
2026-04-14 13:46 55.11814 81.37894 20799 ft 397 kts 87°
2026-04-14 13:46 55.11824 81.42697 20286 ft 393 kts 87°
2026-04-14 13:47 55.11831 81.48993 19596 ft 389 kts 87°
2026-04-14 13:47 55.11835 81.53700 19075 ft 386 kts 87°
2026-04-14 13:47 55.11837 81.56855 18738 ft 383 kts 87°
2026-04-14 13:47 55.11839 81.61483 18232 ft 380 kts 87°
2026-04-14 13:48 55.11839 81.66076 17731 ft 375 kts 87°
2026-04-14 13:48 55.11838 81.70618 17232 ft 372 kts 87°
2026-04-14 13:48 55.11837 81.75119 16742 ft 369 kts 87°
2026-04-14 13:48 55.11829 81.79590 16253 ft 367 kts 88°
2026-04-14 13:49 55.11822 81.83976 15777 ft 364 kts 88°
2026-04-14 13:49 55.11806 81.88385 15293 ft 362 kts 88°
2026-04-14 13:49 55.11788 81.92759 14817 ft 359 kts 88°
2026-04-14 13:49 55.11774 81.97086 14340 ft 354 kts 88°
2026-04-14 13:50 55.11757 82.01359 13870 ft 348 kts 88°
2026-04-14 13:50 55.11738 82.05568 13407 ft 344 kts 88°
2026-04-14 13:50 55.11718 82.09712 12951 ft 339 kts 88°
2026-04-14 13:50 55.11698 82.13796 12508 ft 333 kts 88°
2026-04-14 13:51 55.11676 82.17819 12067 ft 329 kts 88°
2026-04-14 13:51 55.11651 82.21792 11637 ft 325 kts 88°
2026-04-14 13:51 55.11629 82.25720 11207 ft 321 kts 88°
2026-04-14 13:51 55.11602 82.29551 10790 ft 317 kts 89°
2026-04-14 13:52 55.11575 82.33372 10372 ft 313 kts 89°
2026-04-14 13:52 55.11555 82.37148 9955 ft 309 kts 89°
2026-04-14 13:52 55.11530 82.40879 9545 ft 305 kts 90°
2026-04-14 13:52 55.11554 82.44554 9146 ft 300 kts 81°
2026-04-14 13:53 55.11994 82.48067 8780 ft 294 kts 75°
2026-04-14 13:53 55.12449 82.51544 8276 ft 294 kts 76°
2026-04-14 13:53 55.12892 82.55084 7721 ft 298 kts 77°
2026-04-14 13:53 55.13329 82.58581 7353 ft 292 kts 74°
2026-04-14 13:54 55.13914 82.61951 6963 ft 288 kts 72°
2026-04-14 13:54 55.14490 82.65282 6580 ft 284 kts 72°
2026-04-14 13:54 55.15047 82.68572 6202 ft 280 kts 73°
2026-04-14 13:54 55.15595 82.71821 5830 ft 277 kts 73°
2026-04-14 13:55 55.15932 82.75105 5477 ft 274 kts 86°
2026-04-14 13:55 55.15956 82.78423 5118 ft 273 kts 90°
2026-04-14 13:55 55.15986 82.81724 4753 ft 270 kts 89°
2026-04-14 13:55 55.15996 82.84956 4389 ft 267 kts 95°
2026-04-14 13:56 55.15398 82.87942 4042 ft 260 kts 129°
2026-04-14 13:56 55.13997 82.89707 3798 ft 246 kts 165°
2026-04-14 13:56 55.12333 82.90059 3522 ft 239 kts 178°
2026-04-14 13:56 55.10684 82.90348 3189 ft 236 kts 183°
2026-04-14 13:57 55.09107 82.89780 2920 ft 230 kts 197°
2026-04-14 13:57 55.07547 82.89156 2607 ft 230 kts 192°
2026-04-14 13:57 55.05979 82.88676 2306 ft 225 kts 191°
2026-04-14 13:57 55.04472 82.88275 2053 ft 213 kts 191°
2026-04-14 13:58 55.03173 82.87213 1796 ft 208 kts 229°
2026-04-14 13:58 55.02478 82.85086 1746 ft 194 kts 238°
2026-04-14 13:58 55.01731 82.83250 1739 ft 181 kts 249°
2026-04-14 13:58 55.01887 82.81253 1639 ft 169 kts 309°
2026-04-14 13:59 55.02914 82.80452 1447 ft 162 kts 354°